Satellite: DTUSAT-2 Catalog number: 40030 Epoch time: 14254.67144818 Element set: 226 Inclination: 097.9697 deg RA of node: 149.4000 deg Eccentricity: 0.0012762 Arg of perigee: 018.5895 deg Mean anomaly: 341.5855 deg Mean motion: 14.85044827 rev/day Decay rate: 1.841e-05 rev/day^2 Epoch rev: 1242 Checksum: 299
Satellite: ANTELSAT Catalog number: 40034 Epoch time: 14254.76937145 Element set: 233 Inclination: 097.9687 deg RA of node: 147.6938 deg Eccentricity: 0.0060680 Arg of perigee: 291.6840 deg Mean anomaly: 067.7927 deg Mean motion: 14.71362907 rev/day Decay rate: 1.534e-05 rev/day^2 Epoch rev: 1233 Checksum: 319
/EX SB KEPS @ AMSAT $ORB14254.W Orbital Elements 14254.WEATHER
HR AMSAT ORBITAL ELEMENTS FOR WEATHER SATELLITES FROM WA5QGD FORT WORTH,TX September 11, 2014 BID: ORB14254.W TO ALL RADIO AMATEURS BT
Satellite: MET-2/21 Catalog number: 22782 Epoch time: 14254.76410947 Element set: 157 Inclination: 082.5468 deg RA of node: 104.6184 deg Eccentricity: 0.0022582 Arg of perigee: 025.5362 deg Mean anomaly: 023.0152 deg Mean motion: 13.83743181 rev/day Decay rate: 2.4e-07 rev/day^2 Epoch rev: 6209 Checksum: 278
Satellite: OKEAN-4 Catalog number: 23317 Epoch time: 14254.78401778 Element set: 637 Inclination: 082.5412 deg RA of node: 346.7327 deg Eccentricity: 0.0021307 Arg of perigee: 168.9435 deg Mean anomaly: 348.4981 deg Mean motion: 14.85690396 rev/day Decay rate: 1.364e-05 rev/day^2 Epoch rev: 7596 Checksum: 335
Satellite: NOAA-14 Catalog number: 23455 Epoch time: 14254.41766389 Element set: 893 Inclination: 098.7741 deg RA of node: 336.3083 deg Eccentricity: 0.0010264 Arg of perigee: 150.1380 deg Mean anomaly: 349.9180 deg Mean motion: 14.13986404 rev/day Decay rate: -4.0e-07 rev/day^2 Epoch rev: 1613 Checksum: 298
Satellite: NOAA-15 Catalog number: 25338 Epoch time: 14254.53163078 Element set: 331 Inclination: 098.7591 deg RA of node: 248.2478 deg Eccentricity: 0.0009540 Arg of perigee: 254.7941 deg Mean anomaly: 213.3842 deg Mean motion: 14.25465288 rev/day Decay rate: 1.67e-06 rev/day^2 Epoch rev: 84914 Checksum: 325
Satellite: RESURS Catalog number: 25394 Epoch time: 14254.83496045 Element set: 745 Inclination: 098.4235 deg RA of node: 215.5997 deg Eccentricity: 0.0001839 Arg of perigee: 050.8634 deg Mean anomaly: 003.5624 deg Mean motion: 14.24397766 rev/day Decay rate: 2.9e-07 rev/day^2 Epoch rev: 84065 Checksum: 323
Satellite: FENGYUN1 Catalog number: 25730 Epoch time: 14253.79474942 Element set: 234 Inclination: 098.9178 deg RA of node: 214.3884 deg Eccentricity: 0.0020568 Arg of perigee: 227.4069 deg Mean anomaly: 196.1675 deg Mean motion: 14.12052271 rev/day Decay rate: 2.008e-05 rev/day^2 Epoch rev: 78960 Checksum: 319
Satellite: OKEAN-0 Catalog number: 25860 Epoch time: 14253.83265918 Element set: 348 Inclination: 098.0533 deg RA of node: 217.2388 deg Eccentricity: 0.0001946 Arg of perigee: 114.1326 deg Mean anomaly: 301.6327 deg Mean motion: 14.75375960 rev/day Decay rate: 8.90e-06 rev/day^2 Epoch rev: 81478 Checksum: 314
Satellite: NOAA-16 Catalog number: 26536 Epoch time: 14254.39764243 Element set: 827 Inclination: 098.9820 deg RA of node: 315.0998 deg Eccentricity: 0.0009514 Arg of perigee: 302.1086 deg Mean anomaly: 057.9162 deg Mean motion: 14.13036683 rev/day Decay rate: -9.1e-07 rev/day^2 Epoch rev: 72028 Checksum: 316
Satellite: NOAA-17 Catalog number: 27453 Epoch time: 14254.43236746 Element set: 720 Inclination: 098.3198 deg RA of node: 249.6243 deg Eccentricity: 0.0010467 Arg of perigee: 281.0627 deg Mean anomaly: 078.9376 deg Mean motion: 14.24773690 rev/day Decay rate: 1.56e-06 rev/day^2 Epoch rev: 63496 Checksum: 334
Satellite: NOAA-18 Catalog number: 28654 Epoch time: 14254.48792391 Element set: 235 Inclination: 099.1578 deg RA of node: 235.7576 deg Eccentricity: 0.0014635 Arg of perigee: 026.3191 deg Mean anomaly: 087.0119 deg Mean motion: 14.12060615 rev/day Decay rate: 9.2e-07 rev/day^2 Epoch rev: 47974 Checksum: 323
Satellite: NOAA-19 Catalog number: 33591 Epoch time: 14254.53440135 Element set: 374 Inclination: 098.9514 deg RA of node: 199.3409 deg Eccentricity: 0.0013158 Arg of perigee: 233.3767 deg Mean anomaly: 232.8230 deg Mean motion: 14.11759884 rev/day Decay rate: 2.07e-06 rev/day^2 Epoch rev: 28817 Checksum: 319
/EX SB KEPS @ AMSAT $ORB14254.M Orbital Elements 14254.MISC
HR AMSAT ORBITAL ELEMENTS FOR MANNED AND MISCELLANEOUS SATELLITES FROM WA5QGD FORT WORTH,TX September 11, 2014 BID: ORB14254.M TO ALL RADIO AMATEURS BT
Satellite: HUBBLE Catalog number: 20580 Epoch time: 14254.24786861 Element set: 108 Inclination: 028.4698 deg RA of node: 191.2833 deg Eccentricity: 0.0003159 Arg of perigee: 123.4304 deg Mean anomaly: 028.2031 deg Mean motion: 15.05710928 rev/day Decay rate: 3.288e-05 rev/day^2 Epoch rev: 13770 Checksum: 282
Satellite: ISS Catalog number: 25544 Epoch time: 14254.93151858 Element set: 73 Inclination: 051.6498 deg RA of node: 029.6574 deg Eccentricity: 0.0004007 Arg of perigee: 096.6660 deg Mean anomaly: 358.4444 deg Mean motion: 15.50456231 rev/day Decay rate: 2.330e-05 rev/day^2 Epoch rev: 90478 Checksum: 304
Satellite: CO-58 Catalog number: 28895 Epoch time: 14254.44831353 Element set: 864 Inclination: 097.8298 deg RA of node: 091.8232 deg Eccentricity: 0.0018809 Arg of perigee: 098.6180 deg Mean anomaly: 261.7154 deg Mean motion: 14.62008828 rev/day Decay rate: 8.51e-06 rev/day^2 Epoch rev: 47285 Checksum: 351
Satellite: FALCON Catalog number: 30776 Epoch time: 14253.62662050 Element set: 950 Inclination: 035.4292 deg RA of node: 304.4085 deg Eccentricity: 0.0001654 Arg of perigee: 300.1120 deg Mean anomaly: 196.6207 deg Mean motion: 15.17247515 rev/day Decay rate: 8.881e-05 rev/day^2 Epoch rev: 41371 Checksum: 269
Satellite: MAST Catalog number: 31126 Epoch time: 14254.83046443 Element set: 139 Inclination: 097.9241 deg RA of node: 231.2509 deg Eccentricity: 0.0093448 Arg of perigee: 084.4069 deg Mean anomaly: 321.4609 deg Mean motion: 14.55373604 rev/day Decay rate: 1.009e-05 rev/day^2 Epoch rev: 39299 Checksum: 300
Satellite: CAPE1 Catalog number: 31130 Epoch time: 14253.65186506 Element set: 144 Inclination: 097.9451 deg RA of node: 226.8942 deg Eccentricity: 0.0100307 Arg of perigee: 106.1473 deg Mean anomaly: 255.0793 deg Mean motion: 14.54562618 rev/day Decay rate: 1.268e-05 rev/day^2 Epoch rev: 39223 Checksum: 288
Satellite: COMPASS Catalog number: 32787 Epoch time: 14253.76495597 Element set: 31 Inclination: 097.6928 deg RA of node: 304.8271 deg Eccentricity: 0.0012374 Arg of perigee: 255.6785 deg Mean anomaly: 104.3059 deg Mean motion: 14.88276132 rev/day Decay rate: 2.872e-05 rev/day^2 Epoch rev: 34491 Checksum: 331
Satellite: AAUSAT2 Catalog number: 32788 Epoch time: 14254.73537322 Element set: 19 Inclination: 097.6933 deg RA of node: 306.8632 deg Eccentricity: 0.0011880 Arg of perigee: 249.9308 deg Mean anomaly: 110.0631 deg Mean motion: 14.89024342 rev/day Decay rate: 4.060e-05 rev/day^2 Epoch rev: 34512 Checksum: 288
Satellite: DO-64 Catalog number: 32789 Epoch time: 14254.77650560 Element set: 61 Inclination: 097.7121 deg RA of node: 314.2620 deg Eccentricity: 0.0011227 Arg of perigee: 231.7143 deg Mean anomaly: 267.6783 deg Mean motion: 14.94175046 rev/day Decay rate: 7.989e-05 rev/day^2 Epoch rev: 34542 Checksum: 317
Satellite: CO-66 Catalog number: 32791 Epoch time: 14254.67533676 Element set: 14 Inclination: 097.6922 deg RA of node: 304.2913 deg Eccentricity: 0.0012929 Arg of perigee: 256.8838 deg Mean anomaly: 103.0936 deg Mean motion: 14.86864126 rev/day Decay rate: 3.196e-05 rev/day^2 Epoch rev: 34490 Checksum: 334
Satellite: RS-30 Catalog number: 32953 Epoch time: 14254.75368456 Element set: 278 Inclination: 082.5109 deg RA of node: 147.4030 deg Eccentricity: 0.0019111 Arg of perigee: 333.0660 deg Mean anomaly: 026.9432 deg Mean motion: 12.43050135 rev/day Decay rate: 1.0e-07 rev/day^2 Epoch rev: 28601 Checksum: 259
Satellite: METEOR-M Catalog number: 35865 Epoch time: 14254.70651480 Element set: 879 Inclination: 098.5417 deg RA of node: 299.4596 deg Eccentricity: 0.0001970 Arg of perigee: 187.7023 deg Mean anomaly: 172.4122 deg Mean motion: 14.21928406 rev/day Decay rate: -1.0e-07 rev/day^2 Epoch rev: 25863 Checksum: 314
Satellite: RS-38 Catalog number: 35869 Epoch time: 14254.75146609 Element set: 789 Inclination: 098.5344 deg RA of node: 299.2655 deg Eccentricity: 0.0004644 Arg of perigee: 189.7521 deg Mean anomaly: 307.9655 deg Mean motion: 14.22225329 rev/day Decay rate: 4.3e-07 rev/day^2 Epoch rev: 25867 Checksum: 355
Satellite: JUGNU Catalog number: 37839 Epoch time: 14254.87545424 Element set: 689 Inclination: 019.9619 deg RA of node: 089.5322 deg Eccentricity: 0.0018981 Arg of perigee: 219.7348 deg Mean anomaly: 267.1062 deg Mean motion: 14.12333961 rev/day Decay rate: 4.48e-06 rev/day^2 Epoch rev: 15082 Checksum: 331
Satellite: SRMSAT Catalog number: 37841 Epoch time: 14252.02563081 Element set: 689 Inclination: 019.9719 deg RA of node: 127.8116 deg Eccentricity: 0.0012015 Arg of perigee: 124.7304 deg Mean anomaly: 024.5453 deg Mean motion: 14.10370494 rev/day Decay rate: 3.85e-06 rev/day^2 Epoch rev: 15021 Checksum: 267
Satellite: RAX-2 Catalog number: 37853 Epoch time: 14246.46374243 Element set: 903 Inclination: 101.7074 deg RA of node: 313.4726 deg Eccentricity: 0.0214620 Arg of perigee: 190.2077 deg Mean anomaly: 294.9792 deg Mean motion: 14.90101173 rev/day Decay rate: 5.349e-05 rev/day^2 Epoch rev: 15431 Checksum: 290
Satellite: AUBIESAT Catalog number: 37854 Epoch time: 14254.76349539 Element set: 890 Inclination: 101.7095 deg RA of node: 327.9056 deg Eccentricity: 0.0211878 Arg of perigee: 162.8949 deg Mean anomaly: 317.4773 deg Mean motion: 14.91668358 rev/day Decay rate: 1.3495e-04 rev/day^2 Epoch rev: 15561 Checksum: 357
